Location: Kervinic
(48.4279°N, 4.7373°W)
Time: 21:02:48
(UTC+00:00)

USA 32 - Pass Details

Date: 09 April 2020
Orbit: 777 x 783 km, 85.0° (Epoch: 22 April)

Event Time Altitude Azimuth Distance (km) Brightness Sun altitude
Rises 21:58:27 0° 350° (N) 3,274 8.2 -25.5°
Reaches altitude 10° 22:00:50 10° 347° (NNW) 2,341 7.3 -25.8°
Maximum altitude 22:05:59 59° 269° (W) 899 4.4 -26.3°
Enters shadow 22:06:55 50° 227° (SW) 982 4.4 -26.4°
